Satellite-Ground Cal/Val Region Overpasses Predictions

Prediction of Satellite NPP Overpassing Cal/Val Region: PacNW

Region Location: (Latitude: 10.00, Longitude: 139.50) to (Latitude: 22.70, Longitude: 165.60).

Table of predicted overpasses for the next 14.0 days since TLE Epoch: 3/26/2016
Interval Starting Time Starting Location Ending Time Ending Location
1 03/26/2016 16:02:47 ( 22.65, 144.53) 03/26/2016 16:06:22 ( 10.03, 141.53)
2 03/27/2016 03:11:52 ( 10.02, 152.07) 03/27/2016 03:15:27 ( 22.64, 149.07)
3 03/27/2016 15:43:46 ( 22.65, 149.28) 03/27/2016 15:47:21 ( 10.03, 146.29)
4 03/28/2016 02:52:51 ( 10.02, 156.82) 03/28/2016 02:56:27 ( 22.70, 153.81)
5 03/28/2016 15:24:44 ( 22.66, 154.04) 03/28/2016 15:28:19 ( 10.04, 151.04)
6 03/29/2016 02:33:49 ( 10.02, 161.58) 03/29/2016 02:37:25 ( 22.70, 158.56)
7 03/29/2016 15:05:43 ( 22.66, 158.79) 03/29/2016 15:09:18 ( 10.04, 155.80)
8 03/30/2016 02:15:43 ( 13.25, 165.59) 03/30/2016 02:18:24 ( 22.70, 163.32)
9 03/30/2016 03:56:18 ( 10.02, 140.95) 03/30/2016 03:58:04 ( 16.25, 139.51)
10 03/30/2016 14:46:41 ( 22.66, 163.55) 03/30/2016 14:50:16 ( 10.04, 160.55)
11 03/31/2016 03:37:16 ( 10.02, 145.71) 03/31/2016 03:40:51 ( 22.64, 142.71)
12 03/31/2016 14:30:54 ( 11.28, 165.59) 03/31/2016 14:31:15 ( 10.04, 165.30)
13 03/31/2016 16:09:10 ( 22.66, 142.93) 03/31/2016 16:12:45 ( 10.04, 139.93)
14 04/01/2016 03:18:15 ( 10.02, 150.46) 04/01/2016 03:21:50 ( 22.64, 147.46)
15 04/01/2016 15:50:08 ( 22.66, 147.68) 04/01/2016 15:53:43 ( 10.04, 144.68)
16 04/02/2016 02:59:13 ( 10.02, 155.22) 04/02/2016 03:02:48 ( 22.64, 152.22)
17 04/02/2016 15:31:07 ( 22.66, 152.44) 04/02/2016 15:34:42 ( 10.04, 149.44)
18 04/03/2016 02:40:12 ( 10.02, 159.97) 04/03/2016 02:43:47 ( 22.65, 156.97)
19 04/03/2016 15:12:06 ( 22.65, 157.19) 04/03/2016 15:15:41 ( 10.04, 154.19)
20 04/04/2016 02:21:10 ( 10.03, 164.73) 04/04/2016 02:24:45 ( 22.65, 161.73)
21 04/04/2016 14:53:04 ( 22.65, 161.94) 04/04/2016 14:56:39 ( 10.03, 158.95)
22 04/05/2016 03:43:39 ( 10.03, 144.10) 04/05/2016 03:47:14 ( 22.66, 141.10)
23
